Time,TemperatureF,DewpointF,PressureIn,WindDirection,WindDirectionDegrees,WindSpeedMPH,WindSpeedGustMPH,Humidity,HourlyPrecipIn,Conditions,Clouds,dailyrainin,SolarRadiationWatts/m^2,SoftwareType,DateUTC
2013-03-04 00:01:00,43.0,24.0,-100.00,South,186,5.0,11.0,47,0.00,,,0.00,0.000000,,2013-03-04 07:01:00,
2013-03-04 00:11:00,43.0,24.0,-100.00,South,186,5.0,11.0,47,0.00,,,0.00,0.000000,,2013-03-04 07:11:00,
2013-03-04 00:21:00,43.0,24.0,-100.00,South,186,5.0,11.0,47,0.00,,,0.00,0.000000,,2013-03-04 07:21:00,
2013-03-04 00:32:00,43.0,24.0,-100.00,South,186,5.0,11.0,47,0.00,,,0.00,0.000000,,2013-03-04 07:32:00,
2013-03-04 00:41:00,43.0,24.0,-100.00,South,186,5.0,11.0,47,0.00,,,0.00,0.000000,,2013-03-04 07:41:00,
2013-03-04 01:01:00,43.0,25.0,-100.00,NNE,28,4.0,12.0,49,0.00,,,0.00,0.000000,,2013-03-04 08:01:00,
2013-03-04 01:11:00,43.0,25.0,-100.00,NNE,28,4.0,12.0,49,0.00,,,0.00,0.000000,,2013-03-04 08:11:00,
2013-03-04 01:21:00,43.0,25.0,-100.00,NNE,28,4.0,12.0,49,0.00,,,0.00,0.000000,,2013-03-04 08:21:00,
2013-03-04 01:31:00,43.0,25.0,-100.00,NNE,28,4.0,12.0,49,0.00,,,0.00,0.000000,,2013-03-04 08:31:00,
2013-03-04 01:41:00,43.0,25.0,-100.00,NNE,28,4.0,12.0,49,0.00,,,0.00,0.000000,,2013-03-04 08:41:00,
2013-03-04 02:01:00,41.0,26.0,-100.00,NW,323,3.0,7.0,54,0.00,,,0.00,0.000000,,2013-03-04 09:01:00,
2013-03-04 02:11:00,41.0,26.0,-100.00,NW,323,3.0,7.0,54,0.00,,,0.00,0.000000,,2013-03-04 09:11:00,
2013-03-04 02:21:00,41.0,26.0,-100.00,NW,323,3.0,7.0,54,0.00,,,0.00,0.000000,,2013-03-04 09:21:00,
2013-03-04 02:31:00,41.0,26.0,-100.00,NW,323,3.0,7.0,54,0.00,,,0.00,0.000000,,2013-03-04 09:31:00,
2013-03-04 02:41:00,41.0,26.0,-100.00,NW,323,3.0,7.0,54,0.00,,,0.00,0.000000,,2013-03-04 09:41:00,
2013-03-04 03:01:00,41.0,25.0,-100.00,North,0,4.0,7.0,53,0.00,,,0.00,0.000000,,2013-03-04 10:01:00,
2013-03-04 03:11:00,41.0,25.0,-100.00,North,0,4.0,7.0,53,0.00,,,0.00,0.000000,,2013-03-04 10:11:00,
2013-03-04 03:21:00,41.0,25.0,-100.00,North,0,4.0,7.0,53,0.00,,,0.00,0.000000,,2013-03-04 10:21:00,
2013-03-04 03:31:00,41.0,25.0,-100.00,North,0,4.0,7.0,53,0.00,,,0.00,0.000000,,2013-03-04 10:31:00,
2013-03-04 03:41:00,41.0,25.0,-100.00,North,0,4.0,7.0,53,0.00,,,0.00,0.000000,,2013-03-04 10:41:00,
2013-03-04 04:01:00,42.0,24.0,-100.00,South,177,4.0,8.0,48,0.00,,,0.00,0.000000,,2013-03-04 11:01:00,
2013-03-04 04:11:00,42.0,24.0,-100.00,South,177,4.0,8.0,48,0.00,,,0.00,0.000000,,2013-03-04 11:11:00,
2013-03-04 04:21:00,42.0,24.0,-100.00,South,177,4.0,8.0,48,0.00,,,0.00,0.000000,,2013-03-04 11:21:00,
2013-03-04 04:31:00,42.0,24.0,-100.00,South,177,4.0,8.0,48,0.00,,,0.00,0.000000,,2013-03-04 11:31:00,
2013-03-04 04:41:00,42.0,24.0,-100.00,South,177,4.0,8.0,48,0.00,,,0.00,0.000000,,2013-03-04 11:41:00,
2013-03-04 05:01:00,38.0,26.0,-100.00,South,182,2.0,8.0,61,0.00,,,0.00,0.000000,,2013-03-04 12:01:00,
2013-03-04 05:11:00,38.0,26.0,-100.00,South,182,2.0,8.0,61,0.00,,,0.00,0.000000,,2013-03-04 12:11:00,
2013-03-04 05:22:00,38.0,26.0,-100.00,South,182,2.0,8.0,61,0.00,,,0.00,0.000000,,2013-03-04 12:22:00,
2013-03-04 05:32:00,38.0,26.0,-100.00,South,182,2.0,8.0,61,0.00,,,0.00,0.000000,,2013-03-04 12:32:00,
2013-03-04 05:42:00,38.0,26.0,-100.00,South,182,2.0,8.0,61,0.00,,,0.00,0.000000,,2013-03-04 12:42:00,
2013-03-04 06:02:00,38.0,30.0,-100.00,West,272,8.0,18.0,72,0.01,,,0.01,0.000000,,2013-03-04 13:02:00,
2013-03-04 06:11:00,38.0,30.0,-100.00,West,272,8.0,18.0,72,0.01,,,0.01,0.000000,,2013-03-04 13:11:00,
2013-03-04 06:21:00,38.0,30.0,-100.00,West,272,8.0,18.0,72,0.01,,,0.01,0.000000,,2013-03-04 13:21:00,
2013-03-04 06:31:00,38.0,30.0,-100.00,West,272,8.0,18.0,72,0.01,,,0.01,0.000000,,2013-03-04 13:31:00,
2013-03-04 06:41:00,38.0,30.0,-100.00,West,272,8.0,18.0,72,0.01,,,0.01,0.000000,,2013-03-04 13:41:00,
2013-03-04 07:01:00,39.0,30.0,-100.00,ESE,121,3.0,9.0,71,0.00,,,0.01,0.000000,,2013-03-04 14:01:00,
2013-03-04 07:11:00,39.0,30.0,-100.00,ESE,121,3.0,9.0,71,0.00,,,0.01,0.000000,,2013-03-04 14:11:00,
2013-03-04 07:22:00,39.0,30.0,-100.00,ESE,121,3.0,9.0,71,0.00,,,0.01,0.000000,,2013-03-04 14:22:00,
2013-03-04 07:31:00,39.0,30.0,-100.00,ESE,121,3.0,9.0,71,0.00,,,0.01,0.000000,,2013-03-04 14:31:00,
2013-03-04 07:41:00,39.0,30.0,-100.00,ESE,121,3.0,9.0,71,0.00,,,0.01,0.000000,,2013-03-04 14:41:00,
2013-03-04 08:01:00,38.0,29.0,-100.00,West,281,6.0,19.0,70,0.00,,,0.01,1.000000,,2013-03-04 15:01:00,
2013-03-04 08:11:00,38.0,29.0,-100.00,West,281,6.0,19.0,70,0.00,,,0.01,1.000000,,2013-03-04 15:11:00,
2013-03-04 08:21:00,38.0,29.0,-100.00,West,281,6.0,19.0,70,0.00,,,0.01,1.000000,,2013-03-04 15:21:00,
2013-03-04 08:31:00,38.0,29.0,-100.00,West,281,6.0,19.0,70,0.00,,,0.01,1.000000,,2013-03-04 15:31:00,
2013-03-04 08:41:00,38.0,29.0,-100.00,West,281,6.0,19.0,70,0.00,,,0.01,1.000000,,2013-03-04 15:41:00,
2013-03-04 09:02:00,37.0,34.0,-100.00,West,269,9.0,23.0,88,0.03,,,0.04,21.000000,,2013-03-04 16:02:00,
2013-03-04 09:11:00,37.0,34.0,-100.00,West,269,9.0,23.0,88,0.03,,,0.04,21.000000,,2013-03-04 16:11:00,
2013-03-04 09:21:00,37.0,34.0,-100.00,West,269,9.0,23.0,88,0.03,,,0.04,21.000000,,2013-03-04 16:21:00,
2013-03-04 09:31:00,37.0,34.0,-100.00,West,269,9.0,23.0,88,0.03,,,0.04,21.000000,,2013-03-04 16:31:00,
2013-03-04 09:41:00,37.0,34.0,-100.00,West,269,9.0,23.0,88,0.03,,,0.04,21.000000,,2013-03-04 16:41:00,
2013-03-04 10:02:00,41.0,35.0,-100.00,West,273,2.0,13.0,80,0.00,,,0.04,108.000000,,2013-03-04 17:02:00,
2013-03-04 10:11:00,41.0,35.0,-100.00,West,273,2.0,13.0,80,0.00,,,0.04,108.000000,,2013-03-04 17:11:00,
2013-03-04 10:21:00,41.0,35.0,-100.00,West,273,2.0,13.0,80,0.00,,,0.04,108.000000,,2013-03-04 17:21:00,
2013-03-04 10:31:00,41.0,35.0,-100.00,West,273,2.0,13.0,80,0.00,,,0.04,108.000000,,2013-03-04 17:31:00,
2013-03-04 10:42:00,41.0,35.0,-100.00,West,273,2.0,13.0,80,0.00,,,0.04,108.000000,,2013-03-04 17:42:00,
2013-03-04 11:01:00,46.0,34.0,-100.00,WNW,295,6.0,10.0,62,0.00,,,0.04,232.000000,,2013-03-04 18:01:00,
2013-03-04 11:11:00,46.0,34.0,-100.00,WNW,295,6.0,10.0,62,0.00,,,0.04,232.000000,,2013-03-04 18:11:00,
2013-03-04 11:21:00,46.0,34.0,-100.00,WNW,295,6.0,10.0,62,0.00,,,0.04,232.000000,,2013-03-04 18:21:00,
2013-03-04 11:31:00,46.0,34.0,-100.00,WNW,295,6.0,10.0,62,0.00,,,0.04,232.000000,,2013-03-04 18:31:00,
2013-03-04 11:41:00,46.0,34.0,-100.00,WNW,295,6.0,10.0,62,0.00,,,0.04,232.000000,,2013-03-04 18:41:00,
2013-03-04 12:01:00,50.0,32.0,-100.00,West,276,8.0,18.0,50,0.00,,,0.04,567.000000,,2013-03-04 19:01:00,
2013-03-04 12:41:00,50.0,32.0,-100.00,West,276,8.0,18.0,50,0.00,,,0.04,567.000000,,2013-03-04 19:41:00,
2013-03-04 13:01:00,48.0,30.0,-100.00,WNW,293,4.0,16.0,50,-99.99,,,0.04,932.000000,,2013-03-04 20:01:00,
2013-03-04 13:11:00,48.0,30.0,-100.00,WNW,293,4.0,16.0,50,-99.99,,,0.04,932.000000,,2013-03-04 20:11:00,
2013-03-04 13:21:00,48.0,30.0,-100.00,WNW,293,4.0,16.0,50,-99.99,,,0.04,932.000000,,2013-03-04 20:21:00,
2013-03-04 13:32:00,48.0,30.0,-100.00,WNW,293,4.0,16.0,50,-99.99,,,0.04,932.000000,,2013-03-04 20:32:00,
2013-03-04 13:41:00,48.0,30.0,-100.00,WNW,293,4.0,16.0,50,-99.99,,,0.04,932.000000,,2013-03-04 20:41:00,
2013-03-04 14:01:00,54.0,31.0,-100.00,WSW,252,4.0,10.0,42,0.00,,,0.04,572.000000,,2013-03-04 21:01:00,
2013-03-04 14:11:00,54.0,31.0,-100.00,WSW,252,4.0,10.0,42,0.00,,,0.04,572.000000,,2013-03-04 21:11:00,
2013-03-04 14:21:00,54.0,31.0,-100.00,WSW,252,4.0,10.0,42,0.00,,,0.04,572.000000,,2013-03-04 21:21:00,
2013-03-04 15:01:00,49.0,29.0,-100.00,NNE,30,9.0,16.0,45,-99.99,,,0.04,758.000000,,2013-03-04 22:01:00,
2013-03-04 15:11:00,49.0,29.0,-100.00,NNE,30,9.0,16.0,45,-99.99,,,0.04,758.000000,,2013-03-04 22:11:00,
2013-03-04 15:22:00,49.0,29.0,-100.00,NNE,30,9.0,16.0,45,-99.99,,,0.04,758.000000,,2013-03-04 22:22:00,
2013-03-04 15:32:00,49.0,29.0,-100.00,NNE,30,9.0,16.0,45,-99.99,,,0.04,758.000000,,2013-03-04 22:32:00,
2013-03-04 15:42:00,49.0,29.0,-100.00,NNE,30,9.0,16.0,45,-99.99,,,0.04,758.000000,,2013-03-04 22:42:00,
2013-03-04 16:11:00,50.0,22.0,-100.00,NW,325,11.0,20.0,33,0.00,,,0.04,487.000000,,2013-03-04 23:11:00,
2013-03-04 16:21:00,50.0,22.0,-100.00,NW,325,11.0,20.0,33,0.00,,,0.04,487.000000,,2013-03-04 23:21:00,
2013-03-04 16:32:00,50.0,22.0,-100.00,NW,325,11.0,20.0,33,0.00,,,0.04,487.000000,,2013-03-04 23:32:00,
2013-03-04 16:41:00,50.0,22.0,-100.00,NW,325,11.0,20.0,33,0.00,,,0.04,487.000000,,2013-03-04 23:41:00,
2013-03-04 17:01:00,51.0,14.0,-100.00,ENE,60,15.0,25.0,22,0.00,,,0.04,383.000000,,2013-03-05 00:01:00,
2013-03-04 17:11:00,51.0,14.0,-100.00,ENE,60,15.0,25.0,22,0.00,,,0.04,383.000000,,2013-03-05 00:11:00,
2013-03-04 17:21:00,51.0,14.0,-100.00,ENE,60,15.0,25.0,22,0.00,,,0.04,383.000000,,2013-03-05 00:21:00,
2013-03-04 17:32:00,51.0,14.0,-100.00,ENE,60,15.0,25.0,22,0.00,,,0.04,383.000000,,2013-03-05 00:32:00,
2013-03-04 17:41:00,51.0,14.0,-100.00,ENE,60,15.0,25.0,22,0.00,,,0.04,383.000000,,2013-03-05 00:41:00,
2013-03-04 18:01:00,46.0,15.0,-100.00,SSW,211,11.0,24.0,28,0.00,,,0.04,454.000000,,2013-03-05 01:01:00,
2013-03-04 18:12:00,46.0,15.0,-100.00,SSW,211,11.0,24.0,28,0.00,,,0.04,454.000000,,2013-03-05 01:12:00,
2013-03-04 18:21:00,46.0,15.0,-100.00,SSW,211,11.0,24.0,28,0.00,,,0.04,454.000000,,2013-03-05 01:21:00,
2013-03-04 18:32:00,46.0,15.0,-100.00,SSW,211,11.0,24.0,28,0.00,,,0.04,454.000000,,2013-03-05 01:32:00,
2013-03-04 18:41:00,46.0,15.0,-100.00,SSW,211,11.0,24.0,28,0.00,,,0.04,454.000000,,2013-03-05 01:41:00,
2013-03-04 19:01:00,41.0,13.0,-100.00,East,96,12.0,20.0,31,0.00,,,0.04,158.000000,,2013-03-05 02:01:00,
2013-03-04 19:11:00,41.0,13.0,-100.00,East,96,12.0,20.0,31,0.00,,,0.04,158.000000,,2013-03-05 02:11:00,
2013-03-04 19:21:00,41.0,13.0,-100.00,East,96,12.0,20.0,31,0.00,,,0.04,158.000000,,2013-03-05 02:21:00,
2013-03-04 19:32:00,41.0,13.0,-100.00,East,96,12.0,20.0,31,0.00,,,0.04,158.000000,,2013-03-05 02:32:00,
2013-03-04 19:41:00,41.0,13.0,-100.00,East,96,12.0,20.0,31,0.00,,,0.04,158.000000,,2013-03-05 02:41:00,
2013-03-04 20:02:00,38.0,11.0,-100.00,North,5,12.0,23.0,33,0.00,,,0.04,7.000000,,2013-03-05 03:02:00,
2013-03-04 20:12:00,38.0,11.0,-100.00,North,5,12.0,23.0,33,0.00,,,0.04,7.000000,,2013-03-05 03:12:00,
2013-03-04 20:21:00,38.0,11.0,-100.00,North,5,12.0,23.0,33,0.00,,,0.04,7.000000,,2013-03-05 03:21:00,
2013-03-04 20:31:00,38.0,11.0,-100.00,North,5,12.0,23.0,33,0.00,,,0.04,7.000000,,2013-03-05 03:31:00,
2013-03-04 20:41:00,38.0,11.0,-100.00,North,5,12.0,23.0,33,0.00,,,0.04,7.000000,,2013-03-05 03:41:00,
2013-03-04 21:01:00,35.0,4.0,-100.00,NW,308,9.0,23.0,27,0.00,,,0.04,0.000000,,2013-03-05 04:01:00,
2013-03-04 21:11:00,35.0,4.0,-100.00,NW,308,9.0,23.0,27,0.00,,,0.04,0.000000,,2013-03-05 04:11:00,
2013-03-04 21:21:00,35.0,4.0,-100.00,NW,308,9.0,23.0,27,0.00,,,0.04,0.000000,,2013-03-05 04:21:00,
2013-03-04 21:31:00,35.0,4.0,-100.00,NW,308,9.0,23.0,27,0.00,,,0.04,0.000000,,2013-03-05 04:31:00,
2013-03-04 22:01:00,34.0,9.0,-100.00,ESE,107,5.0,16.0,35,0.00,,,0.04,0.000000,,2013-03-05 05:01:00,
2013-03-04 22:11:00,34.0,9.0,-100.00,ESE,107,5.0,16.0,35,0.00,,,0.04,0.000000,,2013-03-05 05:11:00,
2013-03-04 22:22:00,34.0,9.0,-100.00,ESE,107,5.0,16.0,35,0.00,,,0.04,0.000000,,2013-03-05 05:22:00,
2013-03-04 22:31:00,34.0,9.0,-100.00,ESE,107,5.0,16.0,35,0.00,,,0.04,0.000000,,2013-03-05 05:31:00,
2013-03-04 22:41:00,34.0,9.0,-100.00,ESE,107,5.0,16.0,35,0.00,,,0.04,0.000000,,2013-03-05 05:41:00,
2013-03-04 23:01:00,32.0,8.0,-100.00,NNE,16,8.0,13.0,36,0.00,,,0.04,0.000000,,2013-03-05 06:01:00,
2013-03-04 23:11:00,32.0,8.0,-100.00,NNE,16,8.0,13.0,36,0.00,,,0.04,0.000000,,2013-03-05 06:11:00,
2013-03-04 23:22:00,32.0,8.0,-100.00,NNE,16,8.0,13.0,36,0.00,,,0.04,0.000000,,2013-03-05 06:22:00,
2013-03-04 23:31:00,32.0,8.0,-100.00,NNE,16,8.0,13.0,36,0.00,,,0.04,0.000000,,2013-03-05 06:31:00,
2013-03-04 23:41:00,32.0,8.0,-100.00,NNE,16,8.0,13.0,36,0.00,,,0.04,0.000000,,2013-03-05 06:41:00,